Location: Palomar Mountain Lodge
(33.3110°N, 116.8495°W)
Time: 05:35:37
(UTC-07:00)

SPOT 1/Viking Rocket - Pass Details

Date: 19 May 2017
Orbit: 778 x 794 km, 98.6° (Epoch: 22 July)

Event Time Altitude Azimuth Distance (km) Brightness Sun altitude
Exits shadow 21:48:37 39° 87° (E) 1,162 4.1 -22.2°
Maximum altitude 21:49:09 40° 72° (ENE) 1,140 4.1 -22.3°
Drops below altitude 10° 21:53:57 10° 4° (N) 2,344 6.5 -23.0°
Sets 21:56:23 0° 357° (N) 3,273 7.5 -23.4°
